• Processing (Info)

  • MPEC 2022-U357 : 2022 UU14

    The following Minor Planet Electronic Circular may be linked-to from your own Web pages, but must not otherwise be redistributed electronically.

    A form allowing access to any MPEC is at the bottom of this page.


    Read MPEC 2022-U356 Read MPEC 2022-U358


    M.P.E.C. 2022-U357                             Issued 2022 October 29, 13:04 UT
    
         The Minor Planet Electronic Circulars contain information on unusual
             minor planets and routine data on comets.  They are published
        on behalf of Division F of the International Astronomical Union by the
              Minor Planet Center, Smithsonian Astrophysical Observatory,
                              Cambridge, MA 02138, U.S.A.
    
                 Prepared using the Tamkin Foundation Computer Network
    
                                  MPC@CFA.HARVARD.EDU
                URL https://www.minorplanetcenter.net/    ISSN 1523-6714
    
                                    2022 UU14                                
    
    
    Observations:
         K22U14U* C2022 10 28.28773001 52 56.132+05 16 05.95         20.38GVEU357G96
         K22U14U  C2022 10 28.29293701 52 52.810+05 15 37.22         20.14GVEU357G96
         K22U14U  C2022 10 28.29812701 52 49.508+05 15 08.10         20.05GVEU357G96
         K22U14U  C2022 10 28.30330201 52 46.175+05 14 39.48         20.53GVEU357G96
         K22U14U mC2022 10 28.40025801 51 43.621+05 05 31.24               VEU357I52
         K22U14U mC2022 10 28.40097301 51 43.456+05 05 28.61         20.71GVEU357I52
         K22U14U mC2022 10 28.40169101 51 43.049+05 05 23.17         20.88GVEU357I52
         K22U14U mC2022 10 28.40240601 51 42.692+05 05 18.67               VEU357I52
         K22U14U MC2022 10 28.85887401 46 45.10 +04 19 14.6          20.5 GVEU357L01
         K22U14U KC2022 10 28.86035401 46 44.07 +04 19 05.9          20.8 GVEU357L01
         K22U14U KC2022 10 28.86183301 46 42.99 +04 18 56.7          21.0 GVEU357L01
         K22U14U KC2022 10 28.86331101 46 41.92 +04 18 46.8          20.7 GVEU357L01
         K22U14U KC2022 10 28.86479001 46 40.88 +04 18 37.7          20.9 GVEU357L01
         K22U14U KC2022 10 28.87434501 46 34.23 +04 17 35.7          20.9 GVEU357587
         K22U14U KC2022 10 28.87821701 46 31.46 +04 17 11.5                VEU357587
         K22U14U KC2022 10 29.01360 01 44 52.10 +04 02 31.9                VEU357104
         K22U14U KC2022 10 29.01727 01 44 49.41 +04 02 06.9                VEU357104
         K22U14U KC2022 10 29.02094 01 44 46.65 +04 01 42.6          20.7 GVEU357104
         K22U14U |C2022 10 29.11371 01 43 41.86 +03 52 51.6          21.2 VuEU357807
         K22U14U |C2022 10 29.11968 01 43 37.28 +03 52 11.6          21.0 VuEU357807
         K22U14U KC2022 10 29.13676101 43 25.10 +03 48 48.7          20.9 VuEU357H21
         K22U14U KC2022 10 29.13955601 43 22.97 +03 48 29.9          20.8 VuEU357H21
         K22U14U KC2022 10 29.14235301 43 20.84 +03 48 10.8          20.9 VuEU357H21
         K22U14U KC2022 10 29.14515001 43 18.69 +03 47 51.7          20.9 VuEU357H21
         K22U14U KC2022 10 29.14794701 43 16.54 +03 47 32.3          21.0 VuEU357H21
         K22U14U KC2022 10 29.14999701 43 14.93 +03 47 18.1          21.1 VuEU357H21
         K22U14U KC2022 10 29.16959 01 43 01.08 +03 45 08.2          20.6 GXEU357858
         K22U14U KC2022 10 29.18007 01 42 52.99 +03 43 56.6          20.1 GXEU357858
         K22U14U mC2022 10 29.19403101 42 42.494+03 42 22.57         20.23GVEU357I52
         K22U14U mC2022 10 29.19453701 42 42.116+03 42 19.30         20.02GVEU357I52
         K22U14U mC2022 10 29.19504401 42 41.724+03 42 15.80         19.69GVEU357I52
         K22U14U mC2022 10 29.19555001 42 41.342+03 42 12.46         20.06GVEU357I52
         K22U14U KC2022 10 29.22076 01 42 20.45 +03 39 10.6          20.2 VqEU357H36
         K22U14U KC2022 10 29.23249 01 42 11.23 +03 37 48.4          20.4 VqEU357H36
         K22U14U KC2022 10 29.24423 01 42 01.97 +03 36 26.9          20.3 VqEU357H36
    
    Observer details:
    104 San Marcello Pistoiese.  Observers P. Bacci, M. Maestripieri, M. D.
        Grazia.  Measurers P. Bacci, L. Tesi, G. Fagioli.  0.60-m F4 Reflector +
        CCD.
    587 Sormano.  Observers F. Manca, A. Testa.  Measurer F. Manca.  0.5-m f/6.8
        reflector + CCD.
    807 Cerro Tololo Observatory, La Serena.  Observers T. Linder, R. Holmes, L.
        Horn.  0.61-m f/6.5 Dall-Kirkham Astrograph + CCD.
    858 Tebbutt Observatory, Edgewood.  Observer F. B. Zoltowski.  0.51-m f/8.1
        Schmidt-Cassegrain + CCD.
    G96 Mt. Lemmon Survey.  Observer D. Rankin.  Measurers E. J. Christensen, D.
        Fay, J. B. Fazekas, D. C. Fuls, A. R. Gibbs, A. D. Grauer, H. Groeller, J.
        K. Hogan, R. A. Kowalski, S. M. Larson, G. J. Leonard, D. Rankin, R. L.
        Seaman, A. Serrano, F. C. Shelly, K. W. Wierzchos.  1.5-m reflector + 10K
        CCD.
    H21 Astronomical Research Observatory, Westfield.  Observer R. Holmes.
        Measurers T. Linder, R. Holmes, L. Horn.  0.76-m f/3.0 astrograph + CCD.
    H36 Sandlot Observatory, Scranton.  Observer G. Hug.  0.56-m f/4.8 .56 meter
        reflector + CCD.
    I52 Steward Observatory, Mt. Lemmon Station.  Observers G. J. Leonard, R. A.
        Kowalski.  Measurers E. J. Christensen, D. Fay, J. B. Fazekas, D. C. Fuls,
        A. R. Gibbs, A. D. Grauer, H. Groeller, J. K. Hogan, R. A. Kowalski, S. M.
        Larson, G. J. Leonard, D. Rankin, R. L. Seaman, A. Serrano, F. C. Shelly,
        K. W. Wierzchos.  1.0-m prime focus + CCD.
    L01 Visnjan Observatory, Tican.  Observer K. Korlevic.  1.0-m f/2.9 reflector
        + CCD.
    
    Orbital elements:
    2022 UU14                                                Earth MOID = 0.0011 AU
    Epoch 2022 Aug. 9.0 TT = JDT 2459800.5                  Veres                   
    M 326.04121              (2000.0)            P               Q                  
    n   0.26188706     Peri.   68.50030     -0.89692965     -0.44191642             
    a   2.4195059      Node    85.27081     +0.39988447     -0.82522165             
    e   0.8574608      Incl.    0.86639     +0.18870510     -0.35173726             
    P   3.76           H   24.49          G   0.15           U   9                  
    Residuals in seconds of arc
    221028 G96  0.2+  0.1-    221028 L01  0.2+  0.2+    221029 H21  0.3-  0.2-
    221028 G96  0.0   0.1+    221028 587  0.1-  0.1-    221029 H21  0.8-  0.4-
    221028 G96  0.1+  0.1-    221028 587  0.2+  0.4+    221029 858  0.5-  0.1-
    221028 G96  0.5-  0.1+    221029 104  0.3-  0.2+    221029 858  0.1-  0.3+
    221028 I52 (5.0-  0.3-)   221029 104  0.3+  0.4-    221029 I52  0.2-  0.2-
    221028 I52  0.6-  1.2+    221029 104  0.1-  0.4-    221029 I52  0.1+  0.0
    221028 I52  0.2+  0.1-    221029 807  0.0   0.2-    221029 I52  0.1+  0.0
    221028 I52  1.8+  0.5-    221029 807  0.0   0.2+    221029 I52  0.3+  0.1+
    221028 L01  0.1-  0.5-    221029 H21  0.8-  0.1-    221029 H36  0.0   0.1+
    221028 L01  0.3+  0.2+    221029 H21  0.6-  0.1+    221029 H36  0.1+  0.2-
    221028 L01  0.0   0.4+    221029 H21  0.3-  0.1+    221029 H36  0.1+  0.5+
    221028 L01  0.1-  0.1-    221029 H21  0.3-  0.1+
    
    Ephemeris:
    2022 UU14                a,e,i = 2.42, 0.86, 1                   q = 0.3449
    Date    TT    R. A. (2000) Decl.     Delta      r    Elong.  Phase     V
    2022 09 29    02 51 27.2 +14 26 40   0.6379  1.5494   140.7    24.2    25.6
    ...
    2022 10 14    02 45 37.1 +13 07 46   0.3625  1.3391   157.2    16.8    23.8
    ...
    2022 10 22    02 29 47.4 +10 45 17   0.2273  1.2193   169.0     9.0    22.3
    ...
    2022 10 28    01 55 46.8 +05 42 25   0.1327  1.1254   172.2     6.9    20.9
    2022 10 29    01 45 04.1 +04 04 55   0.1180  1.1094   168.7    10.1    20.7
    2022 10 30    01 31 26.5 +01 59 50   0.1037  1.0933   164.1    14.4    20.6
    ...
    2022 11 05    21 20 58.1 -27 50 27   0.05300 0.9946    91.7    85.2    21.1
    ...
    2022 11 13    16 41 08.7 -25 24 32   0.1451  0.8571    22.2   154.1    29.3
    ...
    2022 11 28    15 44 51.8 -20 08 25   0.4071  0.5846     6.9   168.3
    
    M. P. C. Staff               (C) Copyright 2022 MPC           M.P.E.C. 2022-U357
    


    Read MPEC 2022-U356 Read MPEC 2022-U358


    MPEC number:

    Enter an MPEC number in one of the following forms:

    • 1997-B01 (the full form)
    • J97B01 (the packed version of the full form)
    • B01 (the abbreviated form)